Regional Weather Roundup
Issued by NWS

Home | Current Version | Previous Version | Text Only | Print | Product List | Glossary On
Versions: 1 2 3 4 5 6 7 8 9 10 11 12 13 14 15 16 17 18 19 20 21 22 23 24 25 26 27 28 29 30 31 32 33 34 35 36 37 38 39 40 41 42 43 44 45 46 47 48 49 50
538
ASUS43 KLOT 290303
RWRIL

ILLINOIS REGIONAL WEATHER ROUNDUP
NATIONAL WEATHER SERVICE CHICAGO/ROMEOVILLE IL
1000 PM CDT THU JUL 28 2016

NOTE: "FAIR" INDICATES FEW OR NO CLOUDS BELOW 12,000 FEET WITH NO
SIGNIFICANT WEATHER AND/OR OBSTRUCTIONS TO VISIBILITY.

* THESE STATIONS ARE NOT UNDER NWS QUALITY CONTROL. THEY ALSO MAY NOT
  REPORT WEATHER SUCH AS PRECIPITATION OR FOG.

ILZ001-002-007-009-015-016-024-290400-
NORTHWEST ILLINOIS

CITY           SKY/WX    TMP DP  RH WIND       PRES   REMARKS
MOLINE         CLEAR     76  66  71 NW8       29.91R
STERLING*      FOG       69  68  96 E7        29.92R VSB 1/4
SAVANNA*       CLEAR     70  67  92 NE6       29.91R
$$

ILZ003-004-008-010-011-017-018-290400-
NORTH CENTRAL ILLINOIS

CITY           SKY/WX    TMP DP  RH WIND       PRES   REMARKS
ROCKFORD       PTCLDY    71  65  81 NE9       29.94R
FREEPORT*      CLOUDY    69  67  94 NE6       29.95R
ROCHELLE*      PTCLDY    70  67  92 E8        29.93R
DE KALB*       PTCLDY    68  66  94 NE5       29.95R
$$

ILZ005-006-012>014-019>023-290400-
NORTHEAST ILLINOIS

CITY           SKY/WX    TMP DP  RH WIND       PRES   REMARKS
CHICAGO-OHARE  PTCLDY    72  69  90 CALM      29.91F
CHICAGO-MIDWAY MOCLDY    74  70  87 CALM      29.91S
AURORA         MOCLDY    71  67  87 E6        29.93R
LANSING*       CLEAR     74  71  91 N5        29.92R
WAUKEGAN       CLEAR     69  67  93 N5        29.93R
DUPAGE AIRPORT CLEAR     70  66  87 CALM      29.92R
KANKAKEE*      PTCLDY    73  69  89 CALM      29.92S
WHEELING       CLEAR     71  69  93 N5        29.93S
MORRIS*        PTCLDY    71  69  93 CALM      29.91S
NORTHERLY ISL    N/A     73  70  90 NE5         N/A
$$

LMZ740>746-290400-
SOUTHERN LAKE MICHIGAN

STATION/POSITION SKY/WX   TEMP    WIND        PRES    VSBY  WAVE
                          AIR SEA DIR/SP/G                  HT/PER
                          (F)     (DEG/KT/KT) (MB)    (MI)  (FT/S)
SOUTHERN BUOY              75 75  100/  8/ 10 1012.6          2/ 6
WILMETTE HARBOR            75 74   70/  8/ 10   N/A           3/ 5
HARRISON CRIB              76      30/ 10/ 11   N/A
BURNHAM HARBOR             73     350/  2/  8   N/A
CALUMET HARBOR                                1012.4
BURNS HARBOR               76      30/ 11/ 13 1013.2R
MICHIGAN CITY              74      60/  5/  5   N/A
MICHIGAN CITY 6N           76 77   70/  6/ 10   N/A           1/ 3
ST. JOSEPH                 74 77   90/  4/  8 1012.5R         2
$$

ILZ025>027-034>036-040-047-049-050-058-095>099-290400-
WEST-CENTRAL ILLINOIS

CITY           SKY/WX    TMP DP  RH WIND       PRES   REMARKS
QUINCY         CLEAR     72  69  90 N6        29.94R
GALESBURG*     CLEAR     71  67  88 CALM      29.93R
MACOMB*        CLEAR     68  67  94 W6        29.96R
JACKSONVILLE*  MOCLDY    74  70  87 CALM      29.93R
PITTSFIELD*    CLEAR     74  69  87 NW6       29.95R
$$

ILZ028>032-037-038-041>044-048-051>054-059>061-290400-
CENTRAL ILLINOIS

CITY           SKY/WX    TMP DP  RH WIND       PRES   REMARKS
PONTIAC        PTCLDY    73  72  99 CALM      29.93R
BLOOMINGTON    CLEAR     72  71  97 CALM      29.92S
DECATUR        CLEAR     72  69  90 CALM      29.91R
PEORIA         CLEAR     74  69  85 CALM      29.92R
LACON*         MOCLDY    71  69  92 CALM      29.90S
LINCOLN*       PTCLDY    73  72  98 CALM      29.91R
SPRINGFIELD    CLEAR     75  72  90 W3        29.91R
TAYLORVILLE    PTCLDY    72  71  98 MISG      29.91R
$$

ILZ033-039-045-046-055>057-062-063-290400-
EAST-CENTRAL ILLINOIS

CITY           SKY/WX    TMP DP  RH WIND       PRES   REMARKS
CHAMPAIGN      CLEAR     72  70  93 S5        29.91R
MATTOON        CLOUDY    68  66  93 S3        29.91R
PARIS*         CLEAR     73  72  99 CALM      29.91S
$$

ILZ079-100>102-290400-
SOUTHWEST ILLINOIS

CITY           SKY/WX    TMP DP  RH WIND       PRES   REMARKS
ALTON          MOCLDY    77  73  88 CALM      29.91R
CAHOKIA*       CLOUDY    79  72  79 CALM      29.90R HX  82
SPARTA*        PTCLDY    77  74  90 E3        29.93R
$$

ILZ064>066-069>071-074>076-080>082-084>086-088>090-092>094-290400-
SOUTH-CENTRAL ILLINOIS

CITY           SKY/WX    TMP DP  RH WIND       PRES   REMARKS
CARBONDALE     CLOUDY    75  68  78 N6        29.92R
CAIRO*         LGT RAIN  75  73  93 W5        29.92R
EFFINGHAM*     PTCLDY    71  71 100 CALM      29.93S
MARION         CLOUDY    75  73  94 CALM      29.92R
MT. VERNON     PTCLDY    72  64  78 MISG      29.91R
CENTRALIA*     CLEAR     71  71 100 CALM      29.91R
SALEM*         PTCLDY    72  70  93 CALM      29.91R
METROPOLIS*    CLOUDY    78  72  80 SW6       29.93R HX  80
$$

ILZ067-068-072-073-078-083-087-091-290400-
SOUTHEAST ILLINOIS

CITY           SKY/WX    TMP DP  RH WIND       PRES   REMARKS
LAWRENCEVILLE  CLEAR     71  70  96 E5        29.91R
FLORA*         CLEAR     75  74  95 CALM      29.92R
FAIRFIELD*     CLOUDY    72  71  98 CALM      29.89S
HARRISBURG*    MOCLDY    74  74  97 SE7       29.92S
ROBINSON*      CLEAR     73  70  92 SE5       29.91S
CARMI*         PTCLDY    74  73  96 S3        29.92R
$$

ABBREVIATIONS USED IN REMARKS
   TC - TEMPERATURE IN CELSIUS
  WCI - WIND CHILL INDEX
   HX - HEAT INDEX
  VSB - VISIBILITY
$$





USA.gov is the U.S. government's official web portal to all federal, state and local government web resources and services.